Hourly Weather Abstatt

Today, 7 March, Sunday

Time Temperature Precipitation Wind Pressure Humidity
00:00 +1°C° 0 mm 1 mps 746 mmHg 59%
01:00 -1°C° 0 mm 2 mps 746 mmHg 59%
02:00 0°C° 0 mm 1 mps 745 mmHg 59%
03:00 0°C° 0 mm 1 mps 745 mmHg 59%
04:00 0°C° 0 mm 1 mps 745 mmHg 59%
05:00 0°C° 0 mm 1 mps 744 mmHg 59%
06:00 0°C° 0 mm 1 mps 744 mmHg 59%
07:00 0°C° 0 mm 1 mps 744 mmHg 59%
08:00 +2°C° 0 mm 1 mps 744 mmHg 54%
09:00 +3°C° 0 mm 1 mps 744 mmHg 50%
10:00 +5°C° 0 mm 1 mps 743 mmHg 46%
11:00 +6°C° 0 mm 1 mps 743 mmHg 45%
12:00 +7°C° 0 mm 1 mps 742 mmHg 43%
13:00 +9°C° 0 mm 1 mps 742 mmHg 42%
14:00 +9°C° 0 mm 1 mps 741 mmHg 43%
15:00 +9°C° 0 mm 1 mps 741 mmHg 45%
16:00 +9°C° 0 mm 1 mps 740 mmHg 46%
17:00 +7°C° 0 mm 1 mps 740 mmHg 51%
18:00 +5°C° 0 mm 1 mps 740 mmHg 56%
19:00 +3°C° 0 mm 1 mps 740 mmHg 62%
20:00 +3°C° 0 mm 1 mps 741 mmHg 62%
21:00 +1°C° 0 mm 0 mps 741 mmHg 62%
22:00 +1°C° 0 mm 0 mps 741 mmHg 62%
23:00 0°C° 0 mm 0 mps 741 mmHg 62%

Tomorrow, 8 March, Monday

Time Temperature Precipitation Wind Pressure Humidity
00:00 0°C° 0 mm 0 mps 741 mmHg 62%
01:00 0°C° 0 mm 0 mps 741 mmHg 63%
02:00 0°C° 0 mm 0 mps 741 mmHg 65%
03:00 -1°C° 0 mm 0 mps 741 mmHg 67%
04:00 -1°C° 0 mm 0 mps 741 mmHg 69%
05:00 0°C° 0 mm 1 mps 741 mmHg 72%
06:00 0°C° 0 mm 1 mps 741 mmHg 75%
07:00 -1°C° 0 mm 1 mps 741 mmHg 77%
08:00 +1°C° 0 mm 1 mps 741 mmHg 71%
09:00 +3°C° 0 mm 1 mps 742 mmHg 65%
10:00 +4°C° 0 mm 2 mps 742 mmHg 59%
11:00 +5°C° 0 mm 2 mps 742 mmHg 55%
12:00 +6°C° 0 mm 2 mps 742 mmHg 51%
13:00 +7°C° 0 mm 2 mps 741 mmHg 47%
14:00 +7°C° 0 mm 2 mps 741 mmHg 48%
15:00 +7°C° 0 mm 2 mps 741 mmHg 48%
16:00 +7°C° 0 mm 2 mps 740 mmHg 49%
17:00 +5°C° 0 mm 2 mps 740 mmHg 56%
18:00 +4°C° 0 mm 2 mps 740 mmHg 63%
19:00 +3°C° 0 mm 1 mps 740 mmHg 71%
20:00 +3°C° 0 mm 1 mps 741 mmHg 73%
21:00 +2°C° 0 mm 1 mps 741 mmHg 76%
22:00 +2°C° 0 mm 1 mps 741 mmHg 78%
23:00 +2°C° 0 mm 1 mps 741 mmHg 78%

Day after tomorrow, 9 March, Tuesday

Time Temperature Precipitation Wind Pressure Humidity
00:00 +2°C° 0 mm 1 mps 741 mmHg 78%
01:00 +2°C° 0 mm 1 mps 741 mmHg 78%
02:00 +2°C° 0 mm 1 mps 740 mmHg 78%
03:00 +1°C° 0 mm 0 mps 740 mmHg 77%
04:00 +1°C° 0 mm 0 mps 740 mmHg 77%
05:00 +1°C° 0 mm 0 mps 740 mmHg 77%
06:00 0°C° 0 mm 0 mps 740 mmHg 77%
07:00 0°C° 0 mm 0 mps 740 mmHg 77%
08:00 +2°C° 0 mm 0 mps 740 mmHg 71%
09:00 +3°C° 0 mm 0 mps 741 mmHg 66%
10:00 +6°C° 0 mm 1 mps 741 mmHg 60%
11:00 +7°C° 0 mm 1 mps 741 mmHg 57%
12:00 +7°C° 0 mm 2 mps 741 mmHg 55%
13:00 +8°C° 0 mm 2 mps 741 mmHg 52%
14:00 +8°C° 0 mm 2 mps 741 mmHg 53%
15:00 +8°C° 0 mm 2 mps 740 mmHg 54%
16:00 +8°C° 0 mm 3 mps 740 mmHg 55%
17:00 +7°C° 0 mm 2 mps 740 mmHg 62%
18:00 +5°C° 0 mm 2 mps 741 mmHg 69%
19:00 +5°C° 0 mm 1 mps 741 mmHg 76%
20:00 +5°C° 0 mm 1 mps 741 mmHg 79%
21:00 +4°C° 0 mm 1 mps 742 mmHg 82%
22:00 +3°C° 0 mm 0 mps 742 mmHg 84%
23:00 +2°C° 0 mm 0 mps 742 mmHg 85%

10 March, Wednesday

Time Temperature Precipitation Wind Pressure Humidity
00:00 +3°C° 0 mm 1 mps 742 mmHg 86%
01:00 +3°C° 0 mm 1 mps 742 mmHg 86%
02:00 +3°C° 0 mm 1 mps 742 mmHg 87%
03:00 +2°C° 0 mm 1 mps 742 mmHg 87%
04:00 +2°C° 0 mm 1 mps 742 mmHg 87%
05:00 +2°C° 0 mm 1 mps 742 mmHg 87%
06:00 +2°C° 0 mm 1 mps 741 mmHg 86%
07:00 +2°C° 0 mm 1 mps 741 mmHg 86%
08:00 +4°C° 0 mm 1 mps 741 mmHg 79%
09:00 +5°C° 0 mm 1 mps 742 mmHg 72%
10:00 +7°C° 0 mm 1 mps 742 mmHg 65%
11:00 +7°C° 0 mm 2 mps 741 mmHg 61%
12:00 +8°C° 0 mm 2 mps 741 mmHg 57%
13:00 +9°C° 0 mm 2 mps 741 mmHg 53%
14:00 +10°C° 0 mm 2 mps 740 mmHg 53%
15:00 +10°C° 0 mm 2 mps 739 mmHg 52%
16:00 +12°C° 0 mm 2 mps 739 mmHg 52%
17:00 +9°C° 0 mm 2 mps 739 mmHg 56%
18:00 +8°C° 0 mm 2 mps 738 mmHg 61%
19:00 +8°C° 0 mm 1 mps 738 mmHg 65%
20:00 +7°C° 0 mm 2 mps 738 mmHg 66%
21:00 +7°C° 0 mm 2 mps 738 mmHg 66%
22:00 +7°C° 0 mm 3 mps 738 mmHg 66%
23:00 +7°C° 0.2 mm 3 mps 737 mmHg 66%

11 March, Thursday

Time Temperature Precipitation Wind Pressure Humidity
00:00 +7°C° 0.2 mm 3 mps 737 mmHg 67%
01:00 +7°C° 0.2 mm 3 mps 736 mmHg 67%
02:00 +6°C° 0.3 mm 4 mps 736 mmHg 70%
03:00 +6°C° 0.3 mm 5 mps 735 mmHg 73%
04:00 +6°C° 0.3 mm 5 mps 735 mmHg 76%
05:00 +5°C° 0 mm 6 mps 735 mmHg 73%
06:00 +7°C° 0 mm 6 mps 734 mmHg 70%
07:00 +7°C° 0 mm 6 mps 734 mmHg 67%
08:00 +8°C° 0 mm 7 mps 734 mmHg 68%
09:00 +8°C° 0 mm 7 mps 734 mmHg 70%
10:00 +9°C° 0 mm 7 mps 734 mmHg 72%
11:00 +9°C° 0 mm 7 mps 734 mmHg 72%
12:00 +10°C° 0 mm 7 mps 734 mmHg 72%
13:00 +10°C° 0 mm 7 mps 733 mmHg 72%
14:00 +10°C° 0.1 mm 7 mps 733 mmHg 74%
15:00 +9°C° 0.1 mm 7 mps 733 mmHg 77%
16:00 +9°C° 0.1 mm 7 mps 733 mmHg 80%
17:00 +8°C° 0.6 mm 7 mps 733 mmHg 81%
18:00 +6°C° 0.6 mm 7 mps 733 mmHg 82%
19:00 +5°C° 0.6 mm 7 mps 733 mmHg 84%
20:00 +5°C° 0.5 mm 6 mps 733 mmHg 84%
21:00 +4°C° 0.5 mm 6 mps 734 mmHg 85%
22:00 +4°C° 0.5 mm 6 mps 734 mmHg 86%
23:00 +4°C° 0.2 mm 6 mps 734 mmHg 86%

12 March, Friday

Time Temperature Precipitation Wind Pressure Humidity
00:00 +4°C° 0.2 mm 6 mps 735 mmHg 86%
01:00 +4°C° 0.2 mm 6 mps 735 mmHg 86%
02:00 +4°C° 0.2 mm 6 mps 735 mmHg 86%
03:00 +4°C° 0.2 mm 6 mps 735 mmHg 85%
04:00 +4°C° 0.2 mm 6 mps 736 mmHg 85%
05:00 +3°C° 0.1 mm 6 mps 736 mmHg 86%
06:00 +3°C° 0.1 mm 5 mps 737 mmHg 86%
07:00 +3°C° 0.1 mm 5 mps 737 mmHg 86%
08:00 +3°C° 0.1 mm 6 mps 737 mmHg 81%
09:00 +4°C° 0.1 mm 7 mps 738 mmHg 76%
10:00 +5°C° 0.1 mm 7 mps 738 mmHg 71%
11:00 +5°C° 0 mm 7 mps 738 mmHg 67%
12:00 +6°C° 0 mm 8 mps 738 mmHg 62%
13:00 +7°C° 0 mm 8 mps 738 mmHg 58%
14:00 +8°C° 0 mm 7 mps 738 mmHg 57%
15:00 +8°C° 0 mm 7 mps 737 mmHg 57%
16:00 +8°C° 0 mm 6 mps 737 mmHg 56%
17:00 +7°C° 0 mm 5 mps 736 mmHg 61%
18:00 +6°C° 0 mm 4 mps 736 mmHg 66%
19:00 +5°C° 0 mm 3 mps 736 mmHg 72%
20:00 +5°C° 0 mm 3 mps 736 mmHg 73%
21:00 +4°C° 0 mm 3 mps 736 mmHg 75%
22:00 +4°C° 0 mm 3 mps 736 mmHg 77%
23:00 +4°C° 0 mm 3 mps 736 mmHg 78%
Show more